Regional Weather Roundup
Issued by NWS

Home | Current Version | Previous Version | Graphics & Text | Print | Product List | Glossary On
Versions: 1 2 3 4 5 6 7 8 9 10 11 12 13 14 15 16 17 18 19 20 21 22 23 24 25 26 27 28 29 30 31 32 33 34 35 36 37 38 39 40 41 42 43 44 45 46 47 48 49 50
000
ASUS43 KFSD 250202
RWRSD

WEATHER ROUNDUP FOR SOUTH DAKOTA
NATIONAL WEATHER SERVICE SIOUX FALLS SD
900 PM CDT SUN MAY 24 2015

NOTE: "FAIR" INDICATES FEW OR NO CLOUDS BELOW 12,000 FEET WITH NO
SIGNIFICANT WEATHER AND/OR OBSTRUCTIONS TO VISIBILITY.


SDZ001>005-009-010-012>017-250300-
NORTHWEST AND NORTH CENTRAL SOUTH DAKOTA

CITY           SKY/WX    TMP DP  RH WIND       PRES   REMARKS
FAITH            N/A     55  52  89 NE6       29.89F
MOBRIDGE       LGT RAIN  58  58 100 NE8       29.83F
$$

SDZ012>016-024>037-041>051-057-063-072>074-250300-
SOUTHWEST AND SOUTH CENTRAL SOUTH DAKOTA

CITY           SKY/WX    TMP DP  RH WIND       PRES   REMARKS
RAPID CTY ARPT CLOUDY    55  53  93 NE13      29.86R
PIERRE         LGT RAIN  58  57  97 NE7       29.81F FOG
CUSTER         CLOUDY    48  46  93 NE9       29.90R FOG
ELLSWORTH AFB  CLOUDY    55  55  99 NE8       29.86
PHILIP         MOCLDY    57  56  96 NE8       29.82S
PINE RIDGE     CLOUDY    58  53  84 NE12      29.81R
WINNER         CLOUDY    60  58  92 NE8       29.79F FOG
$$

SDZ004>011-016>023-039-040-250300-
NORTHEAST SOUTH DAKOTA

CITY           SKY/WX    TMP DP  RH WIND       PRES   REMARKS
ABERDEEN       CLOUDY    59  56  89 E14       29.84F
WATERTOWN      RAIN      58  56  93 E8        29.83S FOG
BROOKINGS      CLOUDY    59  55  88 NE10      29.81F
$$

SDZ017-020-022-023-036>040-048>070-250300-
SOUTHEAST SOUTH DAKOTA

CITY           SKY/WX    TMP DP  RH WIND       PRES   REMARKS
SIOUX FALLS    CLOUDY    60  58  92 NE7       29.77F
HURON          CLOUDY    60  58  92 NE7       29.80F
CHAMBERLAIN    LGT RAIN  59  59  99 E6        29.79F
MITCHELL       CLOUDY    62  60  93 NE7       29.79F
YANKTON        CLOUDY    61  57  88 CALM      29.76F
$$

ABBREVIATIONS USED IN REMARKS
   TC - TEMPERATURE IN CELSIUS
  WCI - WIND CHILL INDEX
   HX - HEAT INDEX
  VSB - VISIBILITY



USA.gov is the U.S. government's official web portal to all federal, state and local government web resources and services.